Pond Inlet,

4:13 AM EDT on May 27, 2017 (GMT -0400)
Pond Inlet

Weather History for CYIO - November, 2013

Change the Weather History Date:

Tuesday, November 12, 2013

  Actual Average Record
Temperature  
Mean Temperature -18 °F -  
Max Temperature -14 °F -3 °F 24 °F (1998)
Min Temperature -23 °F -12 °F -25 °F (1997)
Degree Days  
Heating Degree Days 84    
Moisture  
Dew Point -25 °F    
Average Humidity 73    
Maximum Humidity 83    
Minimum Humidity 60    
Precipitation  
Precipitation 0.00 in - - ()
Sea Level Pressure  
Sea Level Pressure 29.70 in    
Wind  
Wind Speed 8 mph ()    
Max Wind Speed 10 mph    
Max Gust Speed -    
Visibility 10.8 miles    
Events Snow    
Averages and records for this station are not official NWS values.
T = Trace of Precipitation, MM = Missing Value Source: Averaged Metar Reports

Daily Weather History Graph

Daily Weather History Graph

Search for Another Location

Airport or City:

Trip Planner

Search our weather history database for the weather conditions in past years. The results will help you decide how hot, cold, wet, or windy it might be!

Date:

Astronomy

Nov. 12, 2013 Rise Set
Actual Time 11:11 AM EST 12:39 PM EST
Civil Twilight 8:41 AM EST 3:09 PM EST
Nautical Twilight 7:05 AM EST 4:45 PM EST
Astronomical Twilight 5:42 AM EST 6:08 PM EST
Moon 2:06 PM EST (11/12) 1:23 AM EST (11/12)
Length of Visible Light 6h 27m
Length of Day
1h 28m
Waxing Gibbous, 76% of the Moon is Illuminated
Nov 12
Waxing Gibbous
Nov 17
Full
Nov 25
Last Quarter
Dec 2
New
Dec 9
First Quarter

Hourly Weather History & Observations

Time (EST) Temp. Windchill Dew Point Humidity Pressure Visibility Wind Dir Wind Speed Gust Speed Precip Events Conditions
12:00 AM -20.2 °F -38.8 °F -25.6 °F 76% 29.72 in 9.0 mi South 8.1 mph - N/A Snow Light Snow
1:00 AM -21 °F - -27 °F 60% 29.71 in 10 mi South 9.2 mph - - Snow Light Snow
1:00 AM -22.0 °F -42.3 °F -27.4 °F 76% 29.71 in 9.0 mi South 9.2 mph - N/A Snow Light Snow
2:00 AM -22.0 °F -42.3 °F -27.4 °F 76% 29.72 in 9.0 mi South 9.2 mph - N/A Snow Light Snow
2:46 AM -22.0 °F -41.0 °F -27.4 °F 76% 29.72 in 9.0 mi South 8.1 mph - N/A   Clear
2:59 AM -22.0 °F -41.0 °F -25.6 °F 83% 29.71 in 9.0 mi South 8.1 mph - N/A Snow Light Snow
3:00 AM -20.2 °F -38.8 °F -25.6 °F 76% 29.71 in 9.0 mi South 8.1 mph - N/A Snow Light Snow
4:00 AM -23 °F - -28 °F 63% 29.72 in 10 mi South 8.1 mph - - Snow Light Snow
4:00 AM -22.0 °F -41.0 °F -27.4 °F 76% 29.72 in 9.0 mi South 8.1 mph - N/A Snow Light Snow
5:00 AM -20.2 °F -38.8 °F -25.6 °F 76% 29.72 in 9.0 mi South 8.1 mph - N/A Snow Light Snow
6:00 AM -22.0 °F -42.3 °F -27.4 °F 76% 29.72 in 9.0 mi South 9.2 mph - N/A Snow Light Snow
6:25 AM -22.0 °F -42.3 °F -27.4 °F 76% 29.72 in 9.0 mi South 9.2 mph - N/A   Clear
6:26 AM -22.0 °F -42.3 °F -27.4 °F 76% 29.72 in 9.0 mi South 9.2 mph - N/A Snow Light Snow
7:00 AM -20 °F - -26 °F 62% 29.71 in 10 mi SSE 9.2 mph - - Snow Light Snow
7:00 AM -20.2 °F -40.1 °F -25.6 °F 76% 29.71 in 9.0 mi SSE 9.2 mph - N/A Snow Light Snow
8:00 AM -20.2 °F -40.1 °F -25.6 °F 76% 29.70 in 9.0 mi SSE 9.2 mph - N/A Snow Light Snow
8:50 AM -18.4 °F -37.9 °F -23.8 °F 76% 29.71 in 9.0 mi SSE 9.2 mph - N/A Snow Light Snow
9:00 AM -18.4 °F -36.6 °F -25.6 °F 70% 29.70 in 9.0 mi SSE 8.1 mph - N/A Snow Light Snow
10:00 AM -20 °F - -25 °F 65% 29.70 in 10 mi South 8.1 mph - - Snow Light Snow
10:00 AM -20.2 °F -38.8 °F -25.6 °F 76% 29.70 in 9.0 mi South 8.1 mph - N/A Snow Light Snow
11:00 AM -20.2 °F -40.1 °F -27.4 °F 69% 29.70 in 20.0 mi South 9.2 mph - N/A   Partly Cloudy
12:00 PM -18.4 °F -36.6 °F -23.8 °F 76% 29.70 in 15.0 mi SSE 8.1 mph - N/A   Partly Cloudy
1:00 PM -21 °F - -25 °F 68% 29.69 in 10 mi SSE 9.2 mph - - Snow Light Snow
1:00 PM -22.0 °F -42.3 °F -25.6 °F 83% 29.69 in 15.0 mi SSE 9.2 mph - N/A   Scattered Clouds
2:00 PM -18.4 °F -37.9 °F -23.8 °F 76% 29.68 in 15.0 mi SSE 9.2 mph - N/A   Partly Cloudy
3:00 PM -16.6 °F -36.8 °F -22.0 °F 76% 29.68 in 15.0 mi SSE 10.4 mph - N/A   Mostly Cloudy
4:00 PM -20 °F - -25 °F 65% 29.69 in 10 mi SSW 6.9 mph - - Snow Light Snow
4:00 PM -20.2 °F -35.5 °F -25.6 °F 76% 29.69 in 15.0 mi SSW 5.8 mph - N/A   Scattered Clouds
5:00 PM -20.2 °F -40.1 °F -25.6 °F 76% 29.68 in 15.0 mi SSE 9.2 mph - N/A   Clear
6:00 PM -16.6 °F -35.7 °F -22.0 °F 76% 29.68 in 15.0 mi SSE 9.2 mph - N/A   Clear
7:00 PM -18 °F - -24 °F 61% 29.68 in 10 mi South 6.9 mph - - Snow Light Snow
7:00 PM -18.4 °F -35.1 °F -23.8 °F 76% 29.68 in 15.0 mi South 6.9 mph - N/A   Partly Cloudy
8:00 PM -16.6 °F -32.9 °F -22.0 °F 76% 29.67 in 9.0 mi South 6.9 mph - N/A Snow Light Snow
9:00 PM -14.8 °F -29.1 °F -20.2 °F 77% 29.65 in 9.0 mi South 5.8 mph - N/A Snow Light Snow
10:00 PM -16 °F - -22 °F 63% 29.65 in 10 mi South 5.8 mph - - Snow Light Snow
10:00 PM -16.6 °F -31.3 °F -22.0 °F 76% 29.65 in 9.0 mi South 5.8 mph - N/A Snow Light Snow
11:00 PM -16.6 °F -32.9 °F -22.0 °F 76% 29.66 in 9.0 mi South 6.9 mph - N/A Snow Light Snow